TimeMST,TemperatureF,Dew PointF,Humidity,Sea Level PressureIn,VisibilityMPH,Wind Direction,Wind SpeedMPH,Gust SpeedMPH,PrecipitationIn,Events,Conditions,WindDirDegrees,DateUTC
12:52 AM,41.0,15.1,35,30.17,10.0,ESE,4.6,-,N/A,,Partly Cloudy,110,2012-11-17 07:52:00
1:52 AM,42.1,17.1,37,30.16,10.0,Calm,Calm,-,N/A,,Clear,0,2012-11-17 08:52:00
2:52 AM,39.9,17.1,40,30.16,10.0,Calm,Calm,-,N/A,,Clear,0,2012-11-17 09:52:00
3:52 AM,39.0,16.0,39,30.16,10.0,North,5.8,-,N/A,,Clear,360,2012-11-17 10:52:00
4:52 AM,39.0,16.0,39,30.17,10.0,Calm,Calm,-,N/A,,Partly Cloudy,0,2012-11-17 11:52:00
5:52 AM,37.9,16.0,41,30.20,10.0,North,5.8,-,N/A,,Partly Cloudy,360,2012-11-17 12:52:00
6:52 AM,36.0,16.0,44,30.23,10.0,NNE,4.6,-,N/A,,Mostly Cloudy,20,2012-11-17 13:52:00
7:52 AM,39.0,16.0,39,30.24,10.0,Variable,3.5,-,N/A,,Mostly Cloudy,0,2012-11-17 14:52:00
8:52 AM,42.1,16.0,35,30.24,10.0,NNW,3.5,-,N/A,,Mostly Cloudy,340,2012-11-17 15:52:00
9:52 AM,45.0,16.0,31,30.25,10.0,NW,3.5,-,N/A,,Mostly Cloudy,320,2012-11-17 16:52:00
10:52 AM,48.9,17.1,28,30.22,10.0,Calm,Calm,-,N/A,,Mostly Cloudy,0,2012-11-17 17:52:00
11:52 AM,52.0,18.0,26,30.18,10.0,WSW,4.6,-,N/A,,Mostly Cloudy,240,2012-11-17 18:52:00
12:52 PM,55.0,19.0,24,30.16,10.0,Variable,5.8,-,N/A,,Mostly Cloudy,0,2012-11-17 19:52:00
1:52 PM,57.0,19.0,23,30.12,10.0,South,6.9,-,N/A,,Mostly Cloudy,190,2012-11-17 20:52:00
2:52 PM,57.0,19.9,24,30.11,10.0,South,3.5,-,N/A,,Mostly Cloudy,180,2012-11-17 21:52:00
3:52 PM,57.9,21.0,24,30.10,10.0,Calm,Calm,-,N/A,,Mostly Cloudy,0,2012-11-17 22:52:00
4:52 PM,55.0,19.9,25,30.10,10.0,Calm,Calm,-,N/A,,Mostly Cloudy,0,2012-11-17 23:52:00
5:52 PM,53.1,21.0,29,30.12,10.0,Calm,Calm,-,N/A,,Mostly Cloudy,0,2012-11-18 00:52:00
6:52 PM,51.1,19.9,29,30.13,10.0,Calm,Calm,-,N/A,,Mostly Cloudy,0,2012-11-18 01:52:00
7:52 PM,50.0,19.9,31,30.12,10.0,ESE,3.5,-,N/A,,Mostly Cloudy,120,2012-11-18 02:52:00
8:52 PM,50.0,21.0,32,30.12,10.0,Calm,Calm,-,N/A,,Mostly Cloudy,0,2012-11-18 03:52:00
9:52 PM,48.0,21.9,36,30.12,10.0,ESE,3.5,-,N/A,,Mostly Cloudy,110,2012-11-18 04:52:00
10:52 PM,46.9,21.0,36,30.11,10.0,ESE,6.9,-,N/A,,Mostly Cloudy,120,2012-11-18 05:52:00
11:52 PM,46.0,21.0,37,30.10,10.0,SE,3.5,-,N/A,,Mostly Cloudy,130,2012-11-18 06:52:00